Location: 22
(39.7117°N, 89.5929°W)
Time: 06:30:39
(UTC-05:00)

A-11 Canister half - Pass Details

Date: 02 February 2023
Orbit: 1526 x 1682 km, 47.3° (Epoch: 01 April)

Event Time Altitude Azimuth Distance (km) Brightness Sun altitude
Exits shadow 03:06:27 - 154° (SSE) 3,776 11.1 -45.9°
Reaches altitude 10° 03:07:02 10° 151° (SSE) 3,688 11.0 -45.8°
Maximum altitude 03:11:16 14° 123° (ESE) 3,372 11.0 -45.0°
Drops below altitude 10° 03:15:31 10° 95° (E) 3,692 11.5 -44.2°
Sets 03:20:32 0° 72° (ENE) 4,688 12.3 -43.3°
